| time (UTC) | temp F | wind direction | speed MPH | gust MPH | rain 1hr in | rain 24hr in | rain mn in | humidity % | barometer mb |
| 20260904234837 | 60 | 0 | 0.0 | 0.0 | 0.01 | 0.23 | 0.11 | 97 | 1012.6 |
| 20260904234337 | 60 | 0 | 0.0 | 0.0 | 0.01 | 0.23 | 0.11 | 97 | 1012.5 |
| 20260904233837 | 60 | 0 | 0.0 | 0.0 | 0.01 | 0.23 | 0.11 | 96 | 1012.5 |
| 20260904233337 | 60 | 0 | 0.0 | 0.0 | 0.00 | 0.23 | 0.11 | 97 | 1012.5 |
| 20260904232837 | 60 | 0 | 0.0 | 0.0 | 0.00 | 0.23 | 0.11 | 96 | 1012.4 |
| 20260904232342 | 60 | 0 | 0.0 | 0.0 | 0.00 | 0.23 | 0.10 | 96 | 1012.4 |
| 20260904231837 | 60 | 0 | 0.0 | 0.0 | 0.00 | 0.23 | 0.10 | 96 | 1012.4 |
| 20260904231338 | 60 | 0 | 0.0 | 0.0 | 0.00 | 0.23 | 0.10 | 96 | 1012.3 |
| 20260904230837 | 60 | 0 | 0.0 | 0.0 | 0.00 | 0.23 | 0.10 | 96 | 1012.3 |
| 20260904230338 | 60 | 0 | 0.0 | 0.0 | 0.00 | 0.26 | 0.10 | 96 | 1012.1 |
| 20260904225340 | 60 | 0 | 0.0 | 0.0 | 0.00 | 0.26 | 0.10 | 96 | 1012.3 |
| 20260904224837 | 60 | 0 | 0.0 | 7.0 | 0.00 | 0.26 | 0.10 | 96 | 1012.2 |
| 20260904224338 | 60 | 0 | 0.0 | 7.0 | 0.00 | 0.26 | 0.10 | 96 | 1012.2 |
| 20260904223837 | 60 | 151 | 0.0 | 7.0 | 0.00 | 0.26 | 0.10 | 96 | 1012.1 |
| 20260904223337 | 60 | 0 | 0.0 | 2.0 | 0.00 | 0.26 | 0.10 | 96 | 1011.9 |
| 20260904222837 | 60 | 0 | 0.0 | 0.0 | 0.00 | 0.26 | 0.10 | 95 | 1012.0 |
| 20260904221837 | 60 | 0 | 0.0 | 0.0 | 0.01 | 0.26 | 0.10 | 95 | 1011.7 |
| 20260904221340 | 60 | 0 | 0.0 | 0.0 | 0.01 | 0.26 | 0.10 | 95 | 1011.8 |
| 20260904220837 | 60 | 0 | 0.0 | 0.0 | 0.01 | 0.26 | 0.10 | 94 | 1011.8 |
| 20260904220338 | 60 | 0 | 0.0 | 0.0 | 0.01 | 0.28 | 0.10 | 94 | 1011.7 |
| 20260904215837 | 61 | 0 | 0.0 | 0.0 | 0.01 | 0.28 | 0.10 | 93 | 1011.6 |
| 20260904215339 | 61 | 0 | 0.0 | 0.0 | 0.01 | 0.28 | 0.10 | 92 | 1011.6 |
| 20260904214837 | 62 | 0 | 0.0 | 0.0 | 0.01 | 0.28 | 0.10 | 91 | 1011.5 |
| 20260904214337 | 62 | 0 | 0.0 | 0.0 | 0.01 | 0.28 | 0.10 | 90 | 1011.5 |
| 20260904213838 | 63 | 0 | 0.0 | 0.0 | 0.01 | 0.28 | 0.10 | 89 | 1011.4 |
| 20260904213337 | 63 | 0 | 0.0 | 0.0 | 0.01 | 0.28 | 0.10 | 87 | 1011.3 |
| 20260904212837 | 64 | 0 | 0.0 | 0.0 | 0.01 | 0.28 | 0.10 | 84 | 1011.1 |
| 20260904212339 | 64 | 0 | 0.0 | 5.0 | 0.00 | 0.28 | 0.10 | 84 | 1011.1 |
| 20260904211837 | 64 | 210 | 0.0 | 5.0 | 0.00 | 0.28 | 0.09 | 84 | 1011.1 |
| 20260904211337 | 65 | 0 | 0.0 | 2.0 | 0.00 | 0.28 | 0.09 | 81 | 1011.1 |
| 20260904210337 | 65 | 0 | 0.0 | 0.0 | 0.00 | 0.31 | 0.09 | 81 | 1010.9 |
| 20260904205837 | 66 | 0 | 0.0 | 0.0 | 0.00 | 0.31 | 0.09 | 78 | 1010.9 |
| 20260904205339 | 66 | 0 | 0.0 | 0.0 | 0.00 | 0.31 | 0.09 | 81 | 1010.9 |
| 20260904204837 | 66 | 0 | 0.0 | 0.0 | 0.00 | 0.31 | 0.09 | 81 | 1010.9 |
| 20260904203837 | 66 | 0 | 0.0 | 3.0 | 0.01 | 0.31 | 0.09 | 78 | 1010.9 |
| 20260904203337 | 66 | 75 | 0.0 | 3.0 | 0.01 | 0.31 | 0.09 | 77 | 1010.9 |
| 20260904202837 | 66 | 0 | 0.0 | 0.0 | 0.01 | 0.31 | 0.09 | 78 | 1010.9 |
| 20260904202340 | 65 | 0 | 0.0 | 0.0 | 0.01 | 0.31 | 0.09 | 79 | 1011.0 |
| 20260904201837 | 65 | 0 | 0.0 | 0.0 | 0.01 | 0.31 | 0.09 | 87 | 1011.0 |
| 20260904201337 | 65 | 0 | 0.0 | 0.0 | 0.01 | 0.31 | 0.09 | 87 | 1011.0 |
| 20260904200837 | 65 | 0 | 0.0 | 0.0 | 0.01 | 0.31 | 0.09 | 86 | 1011.1 |
| 20260904195837 | 64 | 0 | 0.0 | 0.0 | 0.01 | 0.32 | 0.09 | 83 | 1011.1 |
| 20260904194837 | 63 | 0 | 0.0 | 0.0 | 0.01 | 0.32 | 0.09 | 90 | 1011.3 |
| 20260904194338 | 63 | 0 | 0.0 | 0.0 | 0.00 | 0.32 | 0.09 | 90 | 1011.3 |
| 20260904193837 | 63 | 0 | 0.0 | 0.0 | 0.00 | 0.32 | 0.08 | 90 | 1011.3 |
| 20260904193337 | 62 | 0 | 0.0 | 0.0 | 0.00 | 0.32 | 0.08 | 91 | 1011.3 |
| 20260904192837 | 62 | 0 | 0.0 | 4.0 | 0.00 | 0.32 | 0.08 | 90 | 1011.1 |
| 20260904192339 | 62 | 75 | 0.0 | 4.0 | 0.00 | 0.32 | 0.08 | 92 | 1011.1 |
| 20260904191837 | 62 | 0 | 0.0 | 0.0 | 0.00 | 0.32 | 0.08 | 92 | 1011.1 |
| 20260904191337 | 62 | 0 | 0.0 | 0.0 | 0.00 | 0.32 | 0.08 | 92 | 1011.3 |
| 20260904190337 | 61 | 23 | 0.0 | 6.0 | 0.00 | 0.35 | 0.08 | 95 | 1011.3 |
| 20260904185837 | 61 | 0 | 0.0 | 0.0 | 0.00 | 0.35 | 0.08 | 96 | 1011.3 |
| 20260904185339 | 61 | 0 | 0.0 | 0.0 | 0.01 | 0.35 | 0.08 | 96 | 1011.3 |
| 20260904184837 | 60 | 0 | 0.0 | 0.0 | 0.01 | 0.35 | 0.08 | 96 | 1011.3 |
| 20260904184337 | 60 | 0 | 0.0 | 0.0 | 0.01 | 0.35 | 0.08 | 97 | 1011.3 |
| 20260904183837 | 60 | 0 | 0.0 | 0.0 | 0.01 | 0.35 | 0.08 | 97 | 1011.1 |
| 20260904183337 | 60 | 0 | 0.0 | 0.0 | 0.01 | 0.35 | 0.08 | 97 | 1011.3 |
| 20260904182837 | 59 | 0 | 0.0 | 0.0 | 0.01 | 0.35 | 0.08 | 96 | 1011.3 |
| 20260904182339 | 59 | 0 | 0.0 | 0.0 | 0.01 | 0.35 | 0.08 | 96 | 1011.3 |
| 20260904181837 | 59 | 0 | 0.0 | 0.0 | 0.01 | 0.35 | 0.08 | 97 | 1011.1 |
| 20260904181338 | 59 | 0 | 0.0 | 0.0 | 0.01 | 0.35 | 0.08 | 97 | 1011.0 |
| 20260904180837 | 59 | 0 | 0.0 | 0.0 | 0.01 | 0.35 | 0.08 | 97 | 1011.0 |
| 20260904175837 | 59 | 0 | 0.0 | 0.0 | 0.01 | 0.36 | 0.08 | 98 | 1010.9 |
| 20260904175339 | 59 | 0 | 0.0 | 0.0 | 0.00 | 0.36 | 0.08 | 98 | 1010.8 |
| 20260904174837 | 59 | 0 | 0.0 | 0.0 | 0.00 | 0.36 | 0.08 | 98 | 1010.6 |
| 20260904174337 | 59 | 0 | 0.0 | 0.0 | 0.00 | 0.36 | 0.07 | 98 | 1010.7 |
| 20260904173838 | 59 | 0 | 0.0 | 6.0 | 0.00 | 0.36 | 0.07 | 98 | 1010.7 |
| 20260904173337 | 59 | 355 | 0.0 | 6.0 | 0.00 | 0.36 | 0.07 | 98 | 1010.7 |
| 20260904172837 | 59 | 0 | 0.0 | 0.0 | 0.00 | 0.36 | 0.07 | 98 | 1010.7 |
| 20260904172340 | 59 | 0 | 0.0 | 3.0 | 0.00 | 0.36 | 0.07 | 98 | 1010.7 |
| 20260904171837 | 59 | 344 | 0.0 | 3.0 | 0.00 | 0.36 | 0.07 | 99 | 1010.6 |
| 20260904170837 | 58 | 0 | 0.0 | 0.0 | 0.00 | 0.36 | 0.07 | 99 | 1010.6 |
| 20260904170338 | 58 | 0 | 0.0 | 0.0 | 0.00 | 0.39 | 0.07 | 99 | 1010.6 |
| 20260904165837 | 58 | 0 | 0.0 | 0.0 | 0.00 | 0.39 | 0.07 | 99 | 1010.4 |
| 20260904165339 | 58 | 0 | 0.0 | 0.0 | 0.01 | 0.39 | 0.07 | 99 | 1010.5 |
| 20260904164837 | 58 | 0 | 0.0 | 0.0 | 0.01 | 0.39 | 0.07 | 99 | 1010.4 |
| 20260904164337 | 58 | 0 | 0.0 | 0.0 | 0.01 | 0.39 | 0.07 | 99 | 1010.4 |
| 20260904163837 | 57 | 0 | 0.0 | 0.0 | 0.01 | 0.39 | 0.07 | 99 | 1010.4 |
| 20260904163337 | 57 | 0 | 0.0 | 0.0 | 0.01 | 0.39 | 0.07 | 99 | 1010.3 |
| 20260904162837 | 57 | 0 | 0.0 | 0.0 | 0.01 | 0.39 | 0.07 | 99 | 1010.4 |
| 20260904162339 | 57 | 0 | 0.0 | 0.0 | 0.01 | 0.39 | 0.07 | 99 | 1010.4 |
| 20260904161837 | 56 | 0 | 0.0 | 0.0 | 0.01 | 0.39 | 0.07 | 99 | 1010.4 |
| 20260904161337 | 56 | 0 | 0.0 | 0.0 | 0.01 | 0.39 | 0.07 | 99 | 1010.4 |
| 20260904160837 | 56 | 0 | 0.0 | 0.0 | 0.01 | 0.39 | 0.07 | 99 | 1010.3 |
| 20260904155836 | 56 | 0 | 0.0 | 0.0 | 0.01 | 0.40 | 0.07 | 100 | 1010.4 |
| 20260904154836 | 56 | 0 | 0.0 | 0.0 | 0.00 | 0.40 | 0.06 | 100 | 1010.4 |
| 20260904154337 | 56 | 0 | 0.0 | 0.0 | 0.00 | 0.40 | 0.06 | 100 | 1010.3 |
| 20260904153337 | 56 | 0 | 0.0 | 0.0 | 0.00 | 0.40 | 0.06 | 100 | 1010.3 |
| 20260904152837 | 56 | 0 | 0.0 | 0.0 | 0.00 | 0.40 | 0.06 | 100 | 1010.3 |
| 20260904151836 | 55 | 0 | 0.0 | 0.0 | 0.00 | 0.40 | 0.06 | 100 | 1010.2 |
| 20260904151339 | 55 | 0 | 0.0 | 0.0 | 0.00 | 0.40 | 0.06 | 99 | 1010.1 |
| 20260904150837 | 55 | 0 | 0.0 | 0.0 | 0.00 | 0.40 | 0.06 | 100 | 1010.0 |
| 20260904150337 | 55 | 0 | 0.0 | 0.0 | 0.01 | 0.42 | 0.06 | 100 | 1009.9 |
| 20260904145836 | 55 | 0 | 0.0 | 0.0 | 0.01 | 0.42 | 0.06 | 100 | 1009.9 |
| 20260904145340 | 55 | 0 | 0.0 | 0.0 | 0.01 | 0.42 | 0.06 | 100 | 1009.8 |
| 20260904144836 | 55 | 0 | 0.0 | 0.0 | 0.01 | 0.42 | 0.06 | 100 | 1009.8 |
| 20260904144337 | 55 | 0 | 0.0 | 0.0 | 0.01 | 0.42 | 0.06 | 100 | 1009.6 |
| 20260904143836 | 55 | 0 | 0.0 | 0.0 | 0.01 | 0.42 | 0.06 | 100 | 1009.6 |
| 20260904143339 | 55 | 0 | 0.0 | 0.0 | 0.01 | 0.42 | 0.06 | 100 | 1009.6 |
| 20260904142836 | 55 | 0 | 0.0 | 0.0 | 0.01 | 0.42 | 0.06 | 100 | 1009.6 |
| 20260904141836 | 55 | 0 | 0.0 | 0.0 | 0.01 | 0.42 | 0.06 | 100 | 1009.5 |
| 20260904141338 | 55 | 0 | 0.0 | 0.0 | 0.01 | 0.42 | 0.06 | 100 | 1009.3 |
| 20260904140836 | 55 | 0 | 0.0 | 0.0 | 0.01 | 0.42 | 0.06 | 100 | 1009.3 |
| 20260904140337 | 55 | 0 | 0.0 | 0.0 | 0.00 | 0.44 | 0.06 | 100 | 1009.3 |
| 20260904134337 | 55 | 0 | 0.0 | 0.0 | 0.00 | 0.44 | 0.05 | 100 | 1009.0 |
| 20260904133836 | 55 | 0 | 0.0 | 0.0 | 0.00 | 0.44 | 0.05 | 100 | 1009.0 |
| 20260904133337 | 55 | 0 | 0.0 | 0.0 | 0.00 | 0.44 | 0.05 | 100 | 1008.9 |
| 20260904132837 | 55 | 0 | 0.0 | 3.0 | 0.00 | 0.44 | 0.05 | 100 | 1008.9 |
| 20260904132431 | 55 | 32 | 0.0 | 3.0 | 0.01 | 0.44 | 0.05 | 100 | 1008.8 |
| 20260904132339 | 55 | 32 | 0.0 | 3.0 | 0.01 | 0.44 | 0.05 | 100 | 1008.8 |
| 20260904131836 | 55 | 0 | 0.0 | 0.0 | 0.01 | 0.44 | 0.05 | 100 | 1008.9 |
| 20260904131337 | 55 | 0 | 0.0 | 0.0 | 0.01 | 0.44 | 0.05 | 100 | 1008.8 |
| 20260904130836 | 55 | 0 | 0.0 | 0.0 | 0.01 | 0.44 | 0.05 | 100 | 1008.7 |
| 20260904130337 | 55 | 0 | 0.0 | 0.0 | 0.01 | 0.45 | 0.05 | 100 | 1008.7 |
| 20260904125836 | 55 | 0 | 0.0 | 0.0 | 0.01 | 0.45 | 0.05 | 100 | 1008.7 |
| 20260904125340 | 55 | 0 | 0.0 | 0.0 | 0.01 | 0.45 | 0.05 | 100 | 1008.6 |
| 20260904124836 | 55 | 0 | 0.0 | 0.0 | 0.01 | 0.45 | 0.05 | 100 | 1008.6 |
| 20260904124337 | 55 | 0 | 0.0 | 0.0 | 0.01 | 0.45 | 0.05 | 100 | 1008.6 |
| 20260904123838 | 55 | 0 | 0.0 | 0.0 | 0.01 | 0.45 | 0.05 | 100 | 1008.5 |
| 20260904123337 | 55 | 0 | 0.0 | 0.0 | 0.01 | 0.45 | 0.05 | 100 | 1008.5 |
| 20260904122836 | 55 | 0 | 0.0 | 0.0 | 0.01 | 0.45 | 0.05 | 100 | 1008.5 |
| 20260904121836 | 55 | 0 | 0.0 | 0.0 | 0.00 | 0.45 | 0.05 | 100 | 1008.5 |
| 20260904121337 | 55 | 0 | 0.0 | 0.0 | 0.00 | 0.45 | 0.04 | 100 | 1008.4 |
| 20260904120836 | 55 | 0 | 0.0 | 0.0 | 0.00 | 0.45 | 0.04 | 100 | 1008.5 |
| 20260904120337 | 55 | 0 | 0.0 | 0.0 | 0.00 | 0.49 | 0.04 | 100 | 1008.5 |
| 20260904115836 | 55 | 0 | 0.0 | 0.0 | 0.00 | 0.49 | 0.04 | 100 | 1008.5 |
| 20260904115339 | 55 | 0 | 0.0 | 0.0 | 0.01 | 0.49 | 0.04 | 100 | 1008.5 |
| 20260904114836 | 55 | 0 | 0.0 | 0.0 | 0.01 | 0.49 | 0.04 | 100 | 1008.4 |
| 20260904114337 | 55 | 0 | 0.0 | 0.0 | 0.01 | 0.49 | 0.04 | 100 | 1008.3 |
| 20260904113836 | 55 | 0 | 0.0 | 0.0 | 0.01 | 0.49 | 0.04 | 100 | 1008.3 |
| 20260904113337 | 55 | 0 | 0.0 | 0.0 | 0.01 | 0.49 | 0.04 | 100 | 1008.3 |
| 20260904112950 | 55 | 0 | 0.0 | 0.0 | 0.01 | 0.49 | 0.04 | 100 | 1008.2 |
| 20260904112836 | 55 | 0 | 0.0 | 0.0 | 0.01 | 0.49 | 0.04 | 100 | 1008.2 |
| 20260904112339 | 55 | 0 | 0.0 | 0.0 | 0.01 | 0.49 | 0.04 | 100 | 1008.1 |
| 20260904111836 | 55 | 0 | 0.0 | 0.0 | 0.01 | 0.49 | 0.04 | 100 | 1008.1 |
| 20260904111337 | 55 | 0 | 0.0 | 0.0 | 0.01 | 0.49 | 0.04 | 99 | 1008.0 |
| 20260904110836 | 55 | 0 | 0.0 | 0.0 | 0.01 | 0.49 | 0.04 | 99 | 1008.1 |
| 20260904110337 | 55 | 0 | 0.0 | 0.0 | 0.01 | 0.51 | 0.04 | 99 | 1008.0 |
| 20260904105836 | 55 | 0 | 0.0 | 0.0 | 0.01 | 0.51 | 0.04 | 99 | 1008.1 |
| 20260904104338 | 55 | 0 | 0.0 | 0.0 | 0.00 | 0.51 | 0.03 | 99 | 1008.0 |
| 20260904103837 | 55 | 0 | 0.0 | 0.0 | 0.00 | 0.51 | 0.03 | 99 | 1008.0 |
| 20260904103337 | 55 | 0 | 0.0 | 0.0 | 0.00 | 0.51 | 0.03 | 99 | 1008.0 |
| 20260904102836 | 55 | 0 | 0.0 | 0.0 | 0.00 | 0.51 | 0.03 | 99 | 1007.9 |
| 20260904102339 | 55 | 0 | 0.0 | 0.0 | 0.01 | 0.51 | 0.03 | 99 | 1007.9 |
| 20260904101836 | 55 | 0 | 0.0 | 0.0 | 0.01 | 0.51 | 0.03 | 99 | 1007.7 |
| 20260904101337 | 55 | 0 | 0.0 | 0.0 | 0.01 | 0.51 | 0.03 | 99 | 1007.9 |
| 20260904100836 | 55 | 0 | 0.0 | 0.0 | 0.01 | 0.51 | 0.03 | 99 | 1007.7 |
| 20260904100337 | 55 | 0 | 0.0 | 0.0 | 0.01 | 0.54 | 0.03 | 99 | 1007.9 |
| 20260904095836 | 55 | 0 | 0.0 | 0.0 | 0.01 | 0.54 | 0.03 | 99 | 1007.7 |
| 20260904094836 | 55 | 0 | 0.0 | 0.0 | 0.01 | 0.54 | 0.03 | 99 | 1007.9 |
| 20260904092836 | 55 | 0 | 0.0 | 0.0 | 0.01 | 0.54 | 0.03 | 99 | 1007.7 |
| 20260904091836 | 55 | 0 | 0.0 | 4.0 | 0.00 | 0.54 | 0.02 | 99 | 1007.6 |
| 20260904090836 | 55 | 0 | 0.0 | 1.0 | 0.01 | 0.54 | 0.02 | 99 | 1007.4 |
| 20260904090337 | 55 | 0 | 0.0 | 0.0 | 0.01 | 0.57 | 0.02 | 99 | 1007.4 |
| 20260904085836 | 55 | 0 | 0.0 | 0.0 | 0.01 | 0.57 | 0.02 | 99 | 1007.5 |
| 20260904084836 | 55 | 0 | 0.0 | 0.0 | 0.01 | 0.57 | 0.02 | 99 | 1007.5 |
| 20260904084337 | 55 | 0 | 0.0 | 0.0 | 0.01 | 0.57 | 0.02 | 99 | 1007.4 |
| 20260904083836 | 55 | 0 | 0.0 | 0.0 | 0.01 | 0.57 | 0.02 | 99 | 1007.4 |
| 20260904083337 | 55 | 0 | 0.0 | 0.0 | 0.01 | 0.57 | 0.02 | 99 | 1007.5 |
| 20260904082836 | 55 | 0 | 0.0 | 0.0 | 0.01 | 0.57 | 0.02 | 99 | 1007.5 |
| 20260904081836 | 55 | 0 | 0.0 | 0.0 | 0.02 | 0.57 | 0.02 | 99 | 1007.6 |
| 20260904081338 | 55 | 0 | 0.0 | 0.0 | 0.01 | 0.57 | 0.02 | 99 | 1007.5 |
| 20260904080836 | 55 | 0 | 0.0 | 0.0 | 0.01 | 0.57 | 0.02 | 99 | 1007.5 |
| 20260904080337 | 55 | 0 | 0.0 | 0.0 | 0.01 | 0.56 | 0.01 | 99 | 1007.5 |
| 20260904075836 | 55 | 0 | 0.0 | 0.0 | 0.01 | 0.56 | 0.01 | 99 | 1007.4 |
| 20260904075338 | 55 | 0 | 0.0 | 0.0 | 0.01 | 0.56 | 0.01 | 99 | 1007.5 |
| 20260904074836 | 55 | 0 | 0.0 | 0.0 | 0.01 | 0.56 | 0.01 | 99 | 1007.5 |
| 20260904074337 | 55 | 0 | 0.0 | 0.0 | 0.01 | 0.56 | 0.01 | 99 | 1007.5 |
| 20260904073836 | 55 | 0 | 0.0 | 0.0 | 0.01 | 0.56 | 0.01 | 99 | 1007.6 |
| 20260904073337 | 55 | 0 | 0.0 | 0.0 | 0.02 | 0.56 | 0.01 | 99 | 1007.6 |
| 20260904072837 | 55 | 0 | 0.0 | 0.0 | 0.02 | 0.56 | 0.01 | 99 | 1007.5 |
| 20260904072339 | 56 | 0 | 0.0 | 0.0 | 0.01 | 0.56 | 0.01 | 99 | 1007.4 |
| 20260904071836 | 56 | 0 | 0.0 | 0.0 | 0.01 | 0.56 | 0.01 | 99 | 1007.5 |
| 20260904071337 | 56 | 0 | 0.0 | 0.0 | 0.01 | 0.56 | 0.00 | 99 | 1007.4 |
| 20260904070837 | 56 | 0 | 0.0 | 0.0 | 0.01 | 0.56 | 0.00 | 99 | 1007.5 |
| 20260904070337 | 56 | 0 | 0.0 | 0.0 | 0.01 | 0.56 | 0.00 | 99 | 1007.5 |
| 20260904065836 | 56 | 0 | 0.0 | 0.0 | 0.01 | 0.56 | 0.56 | 99 | 1007.5 |
| 20260904065339 | 56 | 0 | 0.0 | 0.0 | 0.02 | 0.56 | 0.56 | 99 | 1007.5 |
| 20260904064836 | 56 | 0 | 0.0 | 0.0 | 0.02 | 0.56 | 0.56 | 99 | 1007.6 |
| 20260904064337 | 56 | 0 | 0.0 | 0.0 | 0.02 | 0.56 | 0.56 | 99 | 1007.4 |
| 20260904063836 | 56 | 0 | 0.0 | 0.0 | 0.02 | 0.56 | 0.56 | 99 | 1007.5 |
| 20260904062836 | 56 | 0 | 0.0 | 0.0 | 0.01 | 0.56 | 0.55 | 99 | 1007.5 |
| 20260904062338 | 56 | 0 | 0.0 | 0.0 | 0.01 | 0.56 | 0.55 | 99 | 1007.6 |
| 20260904061836 | 56 | 0 | 0.0 | 0.0 | 0.01 | 0.56 | 0.55 | 99 | 1007.6 |
| 20260904061337 | 56 | 0 | 0.0 | 0.0 | 0.02 | 0.56 | 0.55 | 99 | 1007.6 |
| 20260904060837 | 56 | 0 | 0.0 | 0.0 | 0.02 | 0.56 | 0.55 | 99 | 1007.6 |
| 20260904060337 | 56 | 0 | 0.0 | 0.0 | 0.02 | 0.55 | 0.55 | 99 | 1007.6 |
| 20260904055836 | 56 | 0 | 0.0 | 0.0 | 0.02 | 0.55 | 0.55 | 99 | 1007.7 |
| 20260904054836 | 56 | 0 | 0.0 | 0.0 | 0.01 | 0.54 | 0.54 | 99 | 1007.8 |
| 20260904054337 | 56 | 0 | 0.0 | 0.0 | 0.02 | 0.54 | 0.54 | 99 | 1007.7 |
| 20260904053836 | 56 | 0 | 0.0 | 0.0 | 0.02 | 0.54 | 0.54 | 99 | 1007.9 |
| 20260904053337 | 56 | 0 | 0.0 | 0.0 | 0.02 | 0.54 | 0.54 | 99 | 1007.9 |
| 20260904052836 | 56 | 0 | 0.0 | 0.0 | 0.02 | 0.54 | 0.54 | 99 | 1007.9 |
| 20260904052339 | 56 | 0 | 0.0 | 0.0 | 0.02 | 0.54 | 0.54 | 99 | 1007.9 |
| 20260904051836 | 56 | 0 | 0.0 | 0.0 | 0.02 | 0.54 | 0.54 | 99 | 1007.9 |
| 20260904051420 | 56 | 0 | 0.0 | 0.0 | 0.01 | 0.54 | 0.54 | 99 | 1007.9 |
| 20260904051337 | 56 | 0 | 0.0 | 0.0 | 0.01 | 0.54 | 0.54 | 99 | 1007.9 |
| 20260904050836 | 56 | 0 | 0.0 | 0.0 | 0.01 | 0.54 | 0.53 | 99 | 1007.8 |
| 20260904050337 | 57 | 0 | 0.0 | 0.0 | 0.02 | 0.53 | 0.53 | 99 | 1007.8 |
| 20260904045836 | 57 | 0 | 0.0 | 0.0 | 0.02 | 0.53 | 0.53 | 99 | 1007.9 |
| 20260904045339 | 57 | 0 | 0.0 | 0.0 | 0.02 | 0.53 | 0.53 | 99 | 1007.8 |
| 20260904044836 | 57 | 0 | 0.0 | 0.0 | 0.02 | 0.53 | 0.53 | 99 | 1007.8 |
| 20260904044338 | 57 | 0 | 0.0 | 0.0 | 0.01 | 0.53 | 0.53 | 99 | 1007.8 |
| 20260904043836 | 57 | 0 | 0.0 | 0.0 | 0.01 | 0.53 | 0.53 | 99 | 1007.8 |
| 20260904043337 | 57 | 0 | 0.0 | 0.0 | 0.02 | 0.53 | 0.52 | 99 | 1007.7 |
| 20260904042836 | 57 | 0 | 0.0 | 0.0 | 0.02 | 0.53 | 0.52 | 99 | 1007.8 |
| 20260904041835 | 57 | 0 | 0.0 | 0.0 | 0.02 | 0.53 | 0.52 | 99 | 1007.8 |
| 20260904041337 | 57 | 0 | 0.0 | 0.0 | 0.02 | 0.53 | 0.52 | 99 | 1007.7 |
| 20260904040836 | 57 | 0 | 0.0 | 0.0 | 0.02 | 0.53 | 0.52 | 99 | 1007.7 |
| 20260904040337 | 57 | 0 | 0.0 | 0.0 | 0.02 | 0.52 | 0.52 | 99 | 1007.7 |
| 20260904035836 | 57 | 0 | 0.0 | 0.0 | 0.02 | 0.52 | 0.51 | 99 | 1007.7 |
| 20260904034337 | 57 | 0 | 0.0 | 0.0 | 0.02 | 0.52 | 0.51 | 99 | 1007.5 |
| 20260904033836 | 57 | 0 | 0.0 | 0.0 | 0.02 | 0.52 | 0.51 | 99 | 1007.5 |
| 20260904033338 | 57 | 0 | 0.0 | 0.0 | 0.01 | 0.52 | 0.51 | 99 | 1007.5 |
| 20260904032835 | 57 | 0 | 0.0 | 0.0 | 0.01 | 0.52 | 0.51 | 99 | 1007.4 |
| 20260904032338 | 57 | 0 | 0.0 | 0.0 | 0.02 | 0.52 | 0.50 | 99 | 1007.3 |
| 20260904031836 | 57 | 0 | 0.0 | 0.0 | 0.02 | 0.52 | 0.50 | 99 | 1007.3 |
| 20260904031336 | 57 | 0 | 0.0 | 0.0 | 0.02 | 0.52 | 0.50 | 99 | 1007.4 |
| 20260904030836 | 57 | 0 | 0.0 | 0.0 | 0.02 | 0.52 | 0.50 | 99 | 1007.2 |
| 20260904030336 | 57 | 0 | 0.0 | 0.0 | 0.01 | 0.50 | 0.50 | 99 | 1007.3 |
| 20260904025835 | 57 | 0 | 0.0 | 0.0 | 0.01 | 0.50 | 0.50 | 99 | 1007.3 |
| 20260904025339 | 57 | 0 | 0.0 | 0.0 | 0.01 | 0.50 | 0.49 | 99 | 1007.3 |
| 20260904024835 | 57 | 0 | 0.0 | 0.0 | 0.01 | 0.50 | 0.49 | 99 | 1007.3 |
| 20260904023837 | 57 | 0 | 0.0 | 0.0 | 0.02 | 0.50 | 0.49 | 99 | 1007.2 |
| 20260904022835 | 58 | 0 | 0.0 | 0.0 | 0.02 | 0.50 | 0.49 | 99 | 1007.3 |
| 20260904022340 | 57 | 0 | 0.0 | 0.0 | 0.01 | 0.50 | 0.49 | 99 | 1007.3 |
| 20260904021837 | 58 | 0 | 0.0 | 0.0 | 0.01 | 0.50 | 0.48 | 99 | 1007.3 |
| 20260904021336 | 58 | 0 | 0.0 | 0.0 | 0.01 | 0.50 | 0.48 | 99 | 1007.3 |
| 20260904020835 | 58 | 0 | 0.0 | 0.0 | 0.01 | 0.50 | 0.48 | 99 | 1007.2 |
| 20260904015835 | 58 | 0 | 0.0 | 0.0 | 0.02 | 0.49 | 0.48 | 99 | 1007.2 |
| 20260904015338 | 58 | 0 | 0.0 | 0.0 | 0.02 | 0.49 | 0.48 | 99 | 1007.2 |
| 20260904014835 | 58 | 0 | 0.0 | 0.0 | 0.02 | 0.49 | 0.48 | 99 | 1007.2 |
| 20260904014335 | 58 | 0 | 0.0 | 0.0 | 0.01 | 0.49 | 0.48 | 99 | 1007.2 |
| 20260904013836 | 58 | 0 | 0.0 | 0.0 | 0.01 | 0.49 | 0.47 | 99 | 1007.2 |
| 20260904013336 | 58 | 0 | 0.0 | 0.0 | 0.01 | 0.49 | 0.47 | 99 | 1007.1 |
| 20260904012835 | 58 | 0 | 0.0 | 0.0 | 0.01 | 0.49 | 0.47 | 99 | 1007.2 |
| 20260904012340 | 58 | 0 | 0.0 | 0.0 | 0.02 | 0.49 | 0.47 | 99 | 1007.2 |
| 20260904011835 | 58 | 0 | 0.0 | 0.0 | 0.02 | 0.49 | 0.47 | 98 | 1007.2 |
| 20260904011335 | 58 | 0 | 0.0 | 0.0 | 0.02 | 0.49 | 0.47 | 99 | 1007.3 |
| 20260904010836 | 58 | 0 | 0.0 | 0.0 | 0.02 | 0.49 | 0.47 | 99 | 1007.3 |
| 20260904010336 | 58 | 0 | 0.0 | 0.0 | 0.01 | 0.47 | 0.47 | 99 | 1007.2 |
| 20260904005835 | 58 | 0 | 0.0 | 0.0 | 0.01 | 0.47 | 0.46 | 99 | 1007.3 |
| 20260904005340 | 58 | 0 | 0.0 | 0.0 | 0.02 | 0.47 | 0.46 | 99 | 1007.3 |
| 20260904004835 | 58 | 0 | 0.0 | 0.0 | 0.02 | 0.47 | 0.46 | 99 | 1007.3 |
| 20260904004336 | 58 | 0 | 0.0 | 0.0 | 0.02 | 0.47 | 0.46 | 98 | 1007.3 |
| 20260904003836 | 58 | 0 | 0.0 | 0.0 | 0.02 | 0.47 | 0.46 | 98 | 1007.3 |
| 20260904003336 | 58 | 0 | 0.0 | 0.0 | 0.02 | 0.47 | 0.46 | 99 | 1007.3 |
| 20260904002836 | 58 | 0 | 0.0 | 0.0 | 0.02 | 0.47 | 0.46 | 99 | 1007.3 |
| 20260904001335 | 58 | 0 | 0.0 | 0.0 | 0.02 | 0.47 | 0.45 | 98 | 1007.2 |
| 20260904000836 | 58 | 0 | 0.0 | 0.0 | 0.02 | 0.47 | 0.45 | 98 | 1007.2 |
| 20260904000336 | 58 | 0 | 0.0 | 0.0 | 0.03 | 0.45 | 0.45 | 98 | 1007.3 |
| 20260903235835 | 58 | 0 | 0.0 | 0.0 | 0.03 | 0.45 | 0.45 | 98 | 1007.1 |
| 20260903235340 | 58 | 0 | 0.0 | 0.0 | 0.02 | 0.45 | 0.45 | 98 | 1007.1 |